Content
SEND FEEDBACK

Daily
Averages
Monthly
Summary
French Polynesia

PAPEETE, FRENCH POLYNESIA


Home > Oceania > French Polynesia
Elevation: 7 feet     Latitude: 17 33S     Longitude: 149 36W

WEATHER
 
SELECT A DAY
Number of Records: 213,109;   Date Range: 6/30/96 - 9/30/14
 
SHARE

PRINT THIS DATA

[ ← Previous Day ]
WEATHER ALMANAC - MAY 19, 2013
[ Next Day → ]
[ °C ]   °F
Weather ElementAverageHighLow
Temperature80.3 °F87.8 °F (2:30 pm)74 °F (5:00 am)
Dewpoint71.3 °F73.4 °F (8:30 am)69.8 °F (1:00 am)
Humidity73.7 %89 % (2:30 am)49 % (2:00 pm)
Barometer29.98 in30.02 in (8:00 pm)29.92 in (2:00 pm)
Wind Speed4.2 mph15.7 mph (5:00 pm)
Weather ElementAverage
Visibility7.5 mi
Wind DirectionSE (130 °)

Weather ElementTotal
Precipitation---
Cooling Degree Days15.9 (Base 65)
Growing Degree Days30.9 (Base 50)
Averaged from 54 records on May 19, 2013
WEATHER CONDITIONS BREAKOUT
WIND DIRECTION BREAKOUT
WEATHER BY HOUR - MAY 19, 2013
[ °C ]   °F
Local TimeTemperatureDewpointHumidityBarometerVisibilityWind DirectionWind SpeedGust SpeedPrecipitationEventsConditions
12:30 AM77.0 °F71.6 °F83 %29.98 in6.2 miSouth (190°)1.2 mphMostly Cloudy
1:00 AM77.0 °F69.8 °F78 %29.98 in6.2 miVariable1.2 mphMostly Cloudy
1:30 AM77.0 °F71.6 °F83 %29.95 in6.2 miVariable2.3 mphMostly Cloudy
2:00 AM76.0 °F72.0 °F82 %29.97 in12.0 miEast (80°)4.5 mphScattered Clouds
2:00 AM77.0 °F71.6 °F83 %29.95 in6.2 miEast (80°)2.3 mphMostly Cloudy
2:30 AM75.2 °F71.6 °F89 %29.95 in6.2 miSouth (170°)3.5 mphMostly Cloudy
3:00 AM75.2 °F71.6 °F89 %29.95 in6.2 miVariable2.3 mphMostly Cloudy
3:30 AM75.2 °F69.8 °F83 %29.95 in6.2 miEast (90°)4.6 mph
4:00 AM75.2 °F69.8 °F83 %29.95 in6.2 miEast (100°)4.6 mph
4:30 AM75.2 °F69.8 °F83 %29.95 in6.2 miVariable2.3 mph
5:00 AM74.0 °F70.0 °F83 %29.97 in9.0 miSE (140°)2.3 mphClear
5:00 AM75.2 °F69.8 °F83 %29.95 in6.2 miSE (140°)2.3 mph
5:30 AM75.2 °F69.8 °F83 %29.95 in6.2 miSSE (160°)4.6 mph
6:00 AM75.2 °F69.8 °F83 %29.98 in6.2 miEast (100°)3.5 mphMostly Cloudy
6:30 AM75.2 °F71.6 °F89 %29.98 in6.2 miENE (70°)5.8 mphMostly Cloudy
7:00 AM75.2 °F71.6 °F89 %29.98 in6.2 miVariable2.3 mphMostly Cloudy
7:30 AM77.0 °F71.6 °F83 %29.98 in6.2 miVariable2.3 mphMostly Cloudy
8:00 AM81.0 °F72.0 °F69 %30.01 in16.0 miCalmPartly Cloudy
8:07 AM80.6 °F71.6 °F74 %30.01 in6.2 miNE (40°)1.2 mphMostly Cloudy
8:30 AM82.4 °F73.4 °F74 %30.01 in6.2 miVariable2.3 mphScattered Clouds
9:00 AM84.2 °F73.4 °F70 %30.01 in6.2 miCalmScattered Clouds
9:30 AM84.2 °F71.6 °F66 %30.01 in6.2 miVariable2.3 mphPartly Cloudy
10:14 AM84.2 °F71.6 °F66 %30.01 in6.2 miVariable3.5 mphPartly Cloudy
10:30 AM84.2 °F71.6 °F66 %29.98 in6.2 miWest (260°)2.3 mphPartly Cloudy
11:00 AM85.0 °F72.0 °F57 %29.99 in19.0 miWSW (250°)3.5 mphScattered Clouds
11:00 AM86.0 °F71.6 °F62 %29.98 in6.2 miVariable3.5 mphPartly Cloudy
11:30 AM86.0 °F71.6 °F62 %29.95 in6.2 miWSW (250°)4.6 mphPartly Cloudy
12:00 PM86.0 °F69.8 °F58 %29.95 in6.2 miWNW (300°)5.8 mphPartly Cloudy
12:30 PM86.0 °F71.6 °F62 %29.95 in6.2 miWest (280°)5.8 mphPartly Cloudy
1:00 PM86.0 °F71.6 °F62 %29.95 in6.2 miWest (270°)5.8 mphPartly Cloudy
1:30 PM86.0 °F69.8 °F58 %29.95 in6.2 miWSW (240°)6.9 mphPartly Cloudy
2:00 PM87.0 °F71.0 °F49 %29.94 in19.0 miWSW (240°)6.9 mphScattered Clouds
2:00 PM86.0 °F71.6 °F62 %29.92 in6.2 miWSW (240°)6.9 mphPartly Cloudy
2:30 PM87.8 °F71.6 °F58 %29.92 in6.2 miWSW (250°)5.8 mphPartly Cloudy
3:30 PM87.8 °F71.6 °F58 %29.92 in6.2 miNNW (330°)8.1 mphPartly Cloudy
4:00 PM86.0 °F71.6 °F62 %29.95 in6.2 miWNW (300°)6.9 mphPartly Cloudy
4:30 PM84.2 °F73.4 °F70 %29.95 in6.2 miWest (270°)6.9 mphPartly Cloudy
5:00 PM84.0 °F72.0 °F59 %29.97 in19.0 miWest (260°)15.7 mphScattered Clouds
5:00 PM84.2 °F71.6 °F66 %29.95 in6.2 miWest (260°)8.1 mphPartly Cloudy
5:30 PM82.4 °F71.6 °F70 %29.95 in6.2 miWest (280°)6.9 mphPartly Cloudy
6:00 PM82.4 °F69.8 °F66 %29.98 in6.2 miWest (280°)3.5 mphPartly Cloudy
6:30 PM80.6 °F71.6 °F74 %29.98 in6.2 miENE (70°)2.3 mphPartly Cloudy
7:00 PM78.8 °F71.6 °F78 %29.98 in6.2 miEast (100°)4.6 mphPartly Cloudy
7:30 PM78.8 °F71.6 °F78 %30.01 in6.2 miVariable2.3 mphPartly Cloudy
8:00 PM78.0 °F71.0 °F73 %30.02 in12.0 miEast (100°)4.6 mphScattered Clouds
8:00 PM78.8 °F71.6 °F78 %30.01 in6.2 miEast (100°)4.6 mphPartly Cloudy
8:30 PM78.8 °F71.6 °F78 %30.01 in6.2 miVariable3.5 mphPartly Cloudy
9:00 PM78.8 °F71.6 °F78 %30.01 in6.2 miVariable2.3 mphPartly Cloudy
9:30 PM78.8 °F71.6 °F78 %30.01 in6.2 miVariable2.3 mphPartly Cloudy
10:00 PM77.0 °F71.6 °F83 %30.01 in6.2 miESE (110°)2.3 mphPartly Cloudy
10:30 PM77.0 °F71.6 °F83 %30.01 in6.2 miSSE (150°)4.6 mphPartly Cloudy
11:00 PM77.0 °F71.0 °F78 %30.02 in12.0 miSouth (170°)8.9 mphScattered Clouds
11:00 PM77.0 °F71.6 °F83 %30.01 in6.2 miSouth (170°)4.6 mphPartly Cloudy
11:30 PM77.0 °F71.6 °F83 %30.01 in6.2 miVariable3.5 mphPartly Cloudy
Hourly data recorded from NTAA, located miles away from Papeete, French Polynesia







STORIES FROM OUR PARTNERS